Redmond, OR

1:46 PM PDT on June 25, 2017 (GMT -0700)
Roberts Field Airport

Weather History for KRDM - January, 2014

Change the Weather History Date:

Monday, January 20, 2014

  Actual Average Record
Temperature  
Mean Temperature 28 °F 33 °F  
Max Temperature 30 °F 43 °F 64 °F (1968)
Min Temperature 25 °F 24 °F -4 °F (1962)
Degree Days  
Heating Degree Days 37 32  
Month to date heating degree days 572 657  
Since 1 July heating degree days 3467 3497  
Cooling Degree Days 0 0  
Month to date cooling degree days 0 0  
Year to date cooling degree days 0 0  
Moisture  
Dew Point 24 °F    
Average Humidity 93    
Maximum Humidity 100    
Minimum Humidity 85    
Precipitation  
Precipitation 0.00 in 0.03 in 0.54 in (1956)
Month to date precipitation 0.26 0.68  
Year to date precipitation 0.26 0.68  
Sea Level Pressure  
Sea Level Pressure 30.39 in    
Wind  
Wind Speed 2 mph (NW)    
Max Wind Speed 13 mph    
Max Gust Speed 16 mph    
Visibility 1 miles    
Events Fog    
T = Trace of Precipitation, MM = Missing Value Source: NWS Daily Summary

Daily Weather History Graph

Daily Weather History Graph

Search for Another Location

Airport or City:

Trip Planner

Search our weather history database for the weather conditions in past years. The results will help you decide how hot, cold, wet, or windy it might be!

Date:

Astronomy

Jan. 20, 2014 Rise Set
Actual Time 7:33 AM PST 4:58 PM PST
Civil Twilight 7:01 AM PST 5:30 PM PST
Nautical Twilight 6:26 AM PST 6:05 PM PST
Astronomical Twilight 5:51 AM PST 6:40 PM PST
Moon 9:50 PM PST (1/20) 9:24 AM PST (1/20)
Length of Visible Light 10h 28m
Length of Day
9h 24m
Waning Gibbous, 82% of the Moon is Illuminated
Jan 20
Waning Gibbous
Jan 23
Last Quarter
Jan 30
New
Feb 6
First Quarter
Feb 14
Full

Hourly Weather History & Observations

Time (PST) Temp. Windchill Dew Point Humidity Pressure Visibility Wind Dir Wind Speed Gust Speed Precip Events Conditions
12:48 AM 28.0 °F 19.3 °F 26.1 °F 92% 30.29 in 9.0 mi NW 9.2 mph - N/A   Scattered Clouds
12:56 AM 28.0 °F 18.1 °F 26.1 °F 92% 30.31 in 4.0 mi NW 11.5 mph - N/A   Mostly Cloudy
12:58 AM 27.0 °F 16.7 °F 26.1 °F 96% 30.29 in 1.8 mi NW 11.5 mph - N/A   Mostly Cloudy
1:08 AM 27.0 °F 16.7 °F 26.1 °F 96% 30.29 in 0.5 mi NW 11.5 mph - N/A Fog Light Freezing Fog
1:37 AM 27.0 °F 20.5 °F 26.1 °F 96% 30.30 in 0.2 mi WNW 5.8 mph - N/A Fog Light Freezing Fog
1:56 AM 27.0 °F 19.5 °F 26.1 °F 96% 30.34 in 0.2 mi WNW 6.9 mph - N/A Fog Light Freezing Fog
2:04 AM 27.0 °F 18.7 °F 26.1 °F 96% 30.31 in 0.2 mi WNW 8.1 mph - N/A Fog Light Freezing Fog
2:19 AM 27.0 °F 21.6 °F 25.0 °F 92% 30.31 in 0.2 mi NW 4.6 mph - N/A Fog Light Freezing Fog
2:38 AM 26.1 °F 18.4 °F 25.0 °F 96% 30.32 in 0.2 mi WNW 6.9 mph - N/A Fog Light Freezing Fog
2:53 AM 26.6 °F 21.2 °F 24.8 °F 93% 30.32 in 0.2 mi NW 4.6 mph - N/A Fog Light Freezing Fog
2:56 AM 26.1 °F 21.9 °F 25.0 °F 96% 30.35 in 0.2 mi NNW 3.5 mph - N/A Fog Light Freezing Fog
3:35 AM 26.1 °F 19.4 °F 25.0 °F 96% 30.33 in 0.2 mi NW 5.8 mph - N/A Fog Light Freezing Fog
3:54 AM 26.6 °F - 24.8 °F 93% 30.33 in 0.2 mi Calm Calm - N/A Fog Light Freezing Fog
3:56 AM 26.1 °F - 25.0 °F 96% 30.36 in 0.2 mi Calm Calm - N/A Fog Light Freezing Fog
4:56 AM 25.0 °F - 24.1 °F 96% 30.39 in 0.2 mi Calm Calm - N/A Fog Light Freezing Fog
5:16 AM 26.1 °F 21.9 °F 24.1 °F 92% 30.35 in 0.5 mi NNW 3.5 mph - N/A Fog Light Freezing Fog
5:32 AM 26.1 °F 21.9 °F 24.1 °F 92% 30.35 in 0.2 mi WNW 3.5 mph - N/A Fog Light Freezing Fog
5:56 AM 26.1 °F - 24.1 °F 92% 30.42 in 0.2 mi Calm Calm - N/A Fog Light Freezing Fog
6:56 AM 26.1 °F - 24.1 °F 92% 30.44 in 0.2 mi Calm Calm - N/A Fog Light Freezing Fog
7:03 AM 26.1 °F - 24.1 °F 92% 30.37 in 0.5 mi Calm Calm - N/A Fog Light Freezing Fog
7:56 AM 27.0 °F - 24.1 °F 89% 30.47 in 0.5 mi Calm Calm - N/A Fog Light Freezing Fog
8:56 AM 26.1 °F 21.9 °F 24.1 °F 92% 30.49 in 0.5 mi WNW 3.5 mph - N/A Fog Light Freezing Fog
9:56 AM 27.0 °F - 24.1 °F 89% 30.50 in 0.8 mi Calm Calm - N/A   Overcast
10:56 AM 27.0 °F - 25.0 °F 92% 30.51 in 0.8 mi Calm Calm - N/A   Overcast
11:56 AM 27.0 °F 23.0 °F 25.0 °F 92% 30.48 in 0.5 mi WNW 3.5 mph - N/A   Overcast
12:56 PM 27.0 °F - 25.0 °F 92% 30.45 in 2.0 mi Calm Calm - N/A   Overcast
1:52 PM 26.6 °F - 24.8 °F 93% 30.36 in 0.5 mi Calm Calm - N/A   Overcast
1:56 PM 27.0 °F - 25.0 °F 92% 30.45 in 0.5 mi Calm Calm - N/A   Overcast
2:56 PM 27.0 °F - 25.0 °F 92% 30.45 in 1.0 mi Calm Calm - N/A   Overcast
3:31 PM 27.0 °F 23.0 °F 25.0 °F 92% 30.37 in 2.0 mi WNW 3.5 mph - N/A   Overcast
3:56 PM 27.0 °F 23.0 °F 25.0 °F 92% 30.45 in 2.0 mi NW 3.5 mph - N/A   Overcast
4:22 PM 27.0 °F 20.5 °F 24.1 °F 89% 30.37 in 0.8 mi North 5.8 mph - N/A   Overcast
4:56 PM 27.0 °F 23.0 °F 24.1 °F 89% 30.46 in 1.0 mi WNW 3.5 mph - N/A   Overcast
5:19 PM 26.1 °F - 25.0 °F 96% 30.37 in 0.8 mi Calm Calm - N/A   Overcast
5:26 PM 26.1 °F - 24.1 °F 92% 30.37 in 1.2 mi Calm Calm - N/A   Overcast
5:37 PM 26.1 °F 21.9 °F 24.1 °F 92% 30.38 in 0.5 mi SW 3.5 mph - N/A Fog Light Freezing Fog
5:56 PM 26.1 °F 20.5 °F 24.1 °F 92% 30.47 in 0.5 mi NW 4.6 mph - N/A Fog Light Freezing Fog
6:33 PM 26.1 °F - 24.1 °F 92% 30.39 in 0.2 mi Calm Calm - N/A Fog Light Freezing Fog
6:40 PM 26.1 °F - 24.1 °F 92% 30.39 in 0.5 mi Calm Calm - N/A Fog Light Freezing Fog
6:56 PM 26.1 °F - 24.1 °F 92% 30.47 in 0.2 mi Calm Calm - N/A Fog Light Freezing Fog
7:15 PM 26.1 °F - 24.1 °F 92% 30.38 in 0.5 mi Calm Calm - N/A Fog Light Freezing Fog
7:30 PM 26.1 °F - 24.1 °F 92% 30.38 in 0.2 mi Calm Calm - N/A Fog Light Freezing Fog
7:44 PM 26.1 °F - 24.1 °F 92% 30.38 in 0.5 mi Calm Calm - N/A Fog Light Freezing Fog
7:56 PM 26.1 °F 21.9 °F 24.1 °F 92% 30.47 in 0.5 mi East 3.5 mph - N/A Fog Light Freezing Fog
8:56 PM 26.1 °F - 24.1 °F 92% 30.47 in 0.5 mi Calm Calm - N/A Fog Light Freezing Fog
9:56 PM 25.0 °F 20.7 °F 24.1 °F 96% 30.48 in 0.8 mi South 3.5 mph - N/A   Mist
10:06 PM 25.0 °F 20.7 °F 23.0 °F 92% 30.39 in 1.0 mi South 3.5 mph - N/A   Mist
10:15 PM 25.0 °F - 23.0 °F 92% 30.39 in 0.8 mi Calm Calm - N/A   Overcast
10:42 PM 25.0 °F 19.3 °F 23.0 °F 92% 30.38 in 1.0 mi East 4.6 mph - N/A   Overcast
10:56 PM 25.0 °F 19.3 °F 23.0 °F 92% 30.48 in 1.2 mi East 4.6 mph - N/A   Overcast
11:16 PM 25.0 °F - 23.0 °F 92% 30.38 in 0.8 mi Calm Calm - N/A   Overcast
11:27 PM 25.0 °F 19.3 °F 23.0 °F 92% 30.38 in 1.2 mi South 4.6 mph - N/A   Overcast
11:56 PM 25.0 °F - 23.0 °F 92% 30.47 in 1.0 mi Calm Calm - N/A   Overcast